KC8YVF-1 Weather Reports


Display with metric or nautical units.
time (UTC)temp
F
wind
direction
speed
MPH
gust
MPH
rain 1hr
in
rain 24hr
in
rain mn
in
humidity
%
barometer
mb
20260503024011 44 248 0.0 0.0 0.00 0.00 0.00 52 1001.3
20260503023852 44 248 0.0 0.0 0.00 0.00 0.00 52 1001.3
20260503023010 45 248 0.0 0.0 0.00 0.00 0.00 52 1001.3
20260503022510 45 248 0.0 0.0 0.00 0.00 0.00 51 1001.3
20260503022353 45 248 0.0 0.0 0.00 0.00 0.00 51 1001.3
20260503021510 45 248 0.0 0.0 0.00 0.00 0.00 51 1001.3
20260503020853 46 248 0.0 0.0 0.00 0.00 0.00 50 1001.3
20260503020511 46 248 0.0 0.0 0.00 0.00 0.00 50 1001.1
20260503020010 46 203 0.0 0.0 0.00 0.00 0.00 50 1001.0
20260503015511 46 203 0.0 0.0 0.00 0.00 0.00 49 1001.1
20260503015353 46 203 0.0 0.0 0.00 0.00 0.00 49 1001.0
20260503015011 47 203 0.0 0.0 0.00 0.00 0.00 49 1001.0
20260503014011 47 203 0.0 0.0 0.00 0.00 0.00 48 1001.0
20260503013852 47 203 0.0 0.0 0.00 0.00 0.00 48 1001.0
20260503013510 47 225 0.0 0.0 0.00 0.00 0.00 47 1001.0
20260503013013 47 203 0.0 0.0 0.00 0.00 0.00 47 1001.0
20260503012511 47 225 0.0 0.0 0.00 0.00 0.00 46 1001.0
20260503012352 47 225 0.0 0.0 0.00 0.00 0.00 46 1001.0
20260503011011 48 225 0.0 0.0 0.00 0.00 0.00 46 1001.0
20260503010852 48 225 0.0 0.0 0.00 0.00 0.00 46 1001.0
20260503010510 48 225 0.0 0.0 0.00 0.00 0.00 45 1001.0
20260503010011 48 225 0.0 0.0 0.00 0.00 0.00 45 1001.0
20260503005510 48 225 0.0 0.0 0.00 0.00 0.00 45 1001.0
20260503005354 49 225 0.0 0.0 0.00 0.00 0.00 45 1001.0
20260503004510 49 225 0.0 0.0 0.00 0.00 0.00 45 1001.0
20260503004011 49 225 0.0 0.0 0.00 0.00 0.00 44 1000.9
20260503003852 49 203 0.0 0.0 0.00 0.00 0.00 44 1000.8
20260503003010 49 203 0.0 0.0 0.00 0.00 0.00 44 1000.6
20260503002509 50 248 0.0 0.0 0.00 0.00 0.00 43 1000.6
20260503002352 50 248 0.0 0.0 0.00 0.00 0.00 43 1000.6
20260503001511 50 225 0.0 0.0 0.00 0.00 0.00 43 1000.9
20260503001010 50 270 0.0 0.0 0.00 0.00 0.00 42 1001.0
20260503000852 51 270 0.0 0.0 0.00 0.00 0.00 42 1001.0
20260503000511 51 248 0.0 0.0 0.00 0.00 0.00 42 1001.0
20260503000010 51 248 0.0 0.0 0.00 0.00 0.00 42 1000.9
20260502235512 51 225 0.0 0.0 0.00 0.00 0.00 42 1000.9
20260502235352 51 270 0.0 0.0 0.00 0.00 0.00 42 1001.0
20260502234511 52 248 0.0 0.0 0.00 0.00 0.00 41 1001.0
20260502234011 52 270 0.0 0.0 0.00 0.00 0.00 41 1001.0
20260502233852 52 248 0.0 0.0 0.00 0.00 0.00 41 1001.0
20260502233511 53 270 0.0 0.0 0.00 0.00 0.00 41 1001.0
20260502233010 52 270 0.0 0.0 0.00 0.00 0.00 42 1001.0
20260502232511 52 270 0.0 0.0 0.00 0.00 0.00 41 1001.0
20260502232353 52 293 0.0 0.0 0.00 0.00 0.00 41 1001.0
20260502232011 52 270 0.0 0.0 0.00 0.00 0.00 41 1001.0
20260502231512 52 270 0.0 0.0 0.00 0.00 0.00 41 1001.0
20260502231011 53 248 0.0 0.0 0.00 0.00 0.00 41 1001.0
20260502230852 53 248 0.0 0.0 0.00 0.00 0.00 41 1001.0
20260502230510 53 248 0.0 0.0 0.00 0.00 0.00 41 1001.0
20260502225510 53 270 0.0 0.0 0.00 0.00 0.00 41 1001.0
20260502225353 53 225 0.0 0.0 0.00 0.00 0.00 41 1001.1
20260502225011 53 248 0.0 0.0 0.00 0.00 0.00 41 1001.1
20260502224512 53 248 0.0 0.0 0.00 0.00 0.00 41 1001.0
20260502224011 53 248 0.0 0.0 0.00 0.00 0.00 41 1001.0
20260502223852 53 225 0.0 0.0 0.00 0.00 0.00 41 1001.0
20260502223511 53 248 0.0 0.0 0.00 0.00 0.00 41 1001.0
20260502223011 53 270 0.0 0.0 0.00 0.00 0.00 42 1001.1
20260502222352 53 248 0.0 0.0 0.00 0.00 0.00 42 1001.3
20260502222010 52 270 0.0 0.0 0.00 0.00 0.00 42 1001.3
20260502221510 52 270 0.0 0.0 0.00 0.00 0.00 41 1001.3
20260502221010 52 270 0.0 0.0 0.00 0.00 0.00 41 1001.3
20260502220853 53 270 0.0 0.0 0.00 0.00 0.00 41 1001.3
20260502220511 53 270 0.0 0.0 0.00 0.00 0.00 41 1001.3
20260502215510 54 248 0.0 0.0 0.00 0.00 0.00 41 1001.3
20260502215353 54 248 0.0 0.0 0.00 0.00 0.00 41 1001.3
20260502215010 53 270 0.0 0.0 0.00 0.00 0.00 41 1001.6
20260502214511 54 270 0.0 0.0 0.00 0.00 0.00 41 1001.4
20260502214010 54 315 0.0 0.0 0.00 0.00 0.00 41 1001.6
20260502213853 54 248 0.0 0.0 0.00 0.00 0.00 42 1001.6
20260502213011 55 270 0.0 0.0 0.00 0.00 0.00 41 1001.6
20260502212510 55 270 0.0 0.0 0.00 0.00 0.00 42 1001.6
20260502212353 55 248 0.0 0.0 0.00 0.00 0.00 42 1001.6
20260502212011 55 225 0.0 0.0 0.00 0.00 0.00 41 1001.6
20260502210852 56 225 0.0 0.0 0.00 0.00 0.00 42 1001.6
20260502210511 55 203 0.0 0.0 0.00 0.00 0.00 43 1001.6
20260502210010 55 270 0.0 0.0 0.00 0.00 0.00 43 1002.0
20260502205510 55 338 0.0 0.0 0.00 0.00 0.00 43 1001.8
20260502205353 55 338 0.0 0.0 0.00 0.00 0.00 43 1002.0
20260502205010 54 293 0.0 0.0 0.00 0.00 0.00 43 1002.0
20260502204513 54 293 0.0 0.0 0.00 0.00 0.00 42 1002.0
20260502204011 54 315 0.0 0.0 0.00 0.00 0.00 43 1002.0
20260502203852 54 270 0.0 0.0 0.00 0.00 0.00 43 1002.0
20260502203511 54 315 0.0 0.0 0.00 0.00 0.00 43 1002.0
20260502203010 54 293 0.0 0.0 0.00 0.00 0.00 43 1002.0
20260502202511 54 293 0.0 0.0 0.00 0.00 0.00 43 1002.0
20260502202352 54 225 0.0 0.0 0.00 0.00 0.00 44 1002.2
20260502202010 54 225 0.0 0.0 0.00 0.00 0.00 43 1002.3
20260502201510 53 293 0.0 0.0 0.00 0.00 0.00 43 1002.3
20260502201012 53 270 0.0 0.0 0.00 0.00 0.00 44 1002.3
20260502200852 53 248 0.0 0.0 0.00 0.00 0.00 44 1002.3
20260502200511 52 293 0.0 0.0 0.00 0.00 0.00 44 1002.7
20260502200011 52 248 0.0 0.0 0.00 0.00 0.00 44 1002.7
20260502195511 52 248 0.0 0.0 0.00 0.00 0.00 44 1002.7
20260502195352 52 248 0.0 0.0 0.00 0.00 0.00 44 1002.7
20260502195011 52 225 0.0 0.0 0.00 0.00 0.00 44 1002.7
20260502194511 52 270 0.0 0.0 0.00 0.00 0.00 46 1002.7
20260502194011 52 270 0.0 0.0 0.00 0.00 0.00 45 1002.7
20260502193854 52 270 0.0 0.0 0.00 0.00 0.00 46 1002.7
20260502193510 51 248 0.0 0.0 0.00 0.00 0.00 46 1002.8
20260502193010 51 270 0.0 0.0 0.00 0.00 0.00 45 1002.7
20260502192510 51 203 0.0 0.0 0.00 0.00 0.00 45 1002.8
20260502192353 51 225 0.0 0.0 0.00 0.00 0.00 45 1003.0
20260502192010 51 0 0.0 0.0 0.00 0.00 0.00 45 1003.0
20260502191510 51 248 0.0 0.0 0.00 0.00 0.00 45 1003.0
20260502191010 51 270 0.0 0.0 0.00 0.00 0.00 45 1003.0
20260502190853 51 270 0.0 0.0 0.00 0.00 0.00 45 1003.0
20260502190510 51 293 0.0 0.0 0.00 0.00 0.00 45 1003.1
20260502190010 51 270 0.0 0.0 0.00 0.00 0.00 46 1003.1
20260502185510 51 338 0.0 0.0 0.00 0.00 0.00 45 1003.3
20260502185353 51 248 0.0 0.0 0.00 0.00 0.00 45 1003.3
20260502185011 51 225 0.0 0.0 0.00 0.00 0.00 45 1003.3
20260502184510 51 203 0.0 0.0 0.00 0.00 0.00 45 1003.3
20260502184010 51 203 0.0 0.0 0.00 0.00 0.00 45 1003.3
20260502183853 51 203 0.0 0.0 0.00 0.00 0.00 45 1003.3
20260502183511 52 338 0.0 0.0 0.00 0.00 0.00 45 1003.3
20260502182353 52 270 0.0 0.0 0.00 0.00 0.00 46 1003.3
20260502181512 51 225 0.0 0.0 0.00 0.00 0.00 46 1003.7
20260502181011 52 293 0.0 0.0 0.00 0.00 0.00 46 1003.7
20260502180852 52 270 0.0 0.0 0.00 0.00 0.00 46 1003.7
20260502180510 52 293 0.0 0.0 0.00 0.00 0.00 46 1003.7
20260502170510 50 338 0.0 0.0 0.00 0.00 0.00 50 1004.0
20260502164012 49 270 0.0 0.0 0.00 0.00 0.00 50 1004.1
20260502163852 49 270 0.0 0.0 0.00 0.00 0.00 50 1004.0
20260502163511 49 270 0.0 0.0 0.00 0.00 0.00 51 1004.0
20260502162510 48 270 0.0 0.0 0.00 0.00 0.00 51 1004.4
20260502162353 49 270 0.0 0.0 0.00 0.00 0.00 52 1004.4
20260502162010 49 293 0.0 0.0 0.00 0.00 0.00 52 1004.4
20260502161512 49 270 0.0 0.0 0.00 0.00 0.00 52 1004.4
20260502161011 48 293 0.0 0.0 0.00 0.00 0.00 52 1004.4
20260502160852 48 315 0.0 0.0 0.00 0.00 0.00 54 1004.4
20260502160510 47 0 0.0 0.0 0.00 0.00 0.00 54 1004.4
20260502152011 44 338 0.0 0.0 0.00 0.00 0.00 58 1004.4
20260502151510 44 293 0.0 0.0 0.00 0.00 0.00 58 1004.4
20260502151010 44 315 0.0 0.0 0.00 0.00 0.00 58 1004.4
20260502150853 43 315 0.0 0.0 0.00 0.00 0.00 59 1004.4
20260502150511 43 338 0.0 0.0 0.00 0.00 0.00 59 1004.4
20260502130510 42 338 0.0 0.0 0.00 0.00 0.00 69 1005.0
20260502123511 40 338 0.0 0.0 0.00 0.00 0.00 72 1005.0
20260502123011 40 338 0.0 0.0 0.00 0.00 0.00 73 1005.0
20260502122511 40 338 0.0 0.0 0.00 0.00 0.00 74 1005.3
20260502122352 40 338 0.0 0.0 0.00 0.00 0.00 74 1005.2
20260502122011 39 0 0.0 0.0 0.00 0.00 0.00 74 1005.0
20260502121510 38 0 0.0 0.0 0.00 0.00 0.00 75 1005.1
20260502120853 38 338 0.0 0.0 0.00 0.00 0.00 76 1005.0
20260502120511 37 338 0.0 0.0 0.00 0.00 0.00 76 1005.0
20260502115352 34 293 0.0 0.0 0.00 0.00 0.00 77 1005.0
20260502115011 34 270 0.0 0.0 0.00 0.00 0.00 77 1005.0
20260502114510 33 315 0.0 0.0 0.00 0.00 0.00 77 1005.0
20260502113854 32 293 0.0 0.0 0.00 0.00 0.00 76 1005.0
20260502113510 32 293 0.0 0.0 0.00 0.00 0.00 76 1005.0
20260502113012 32 293 0.0 0.0 0.00 0.00 0.00 75 1005.0
20260502112354 32 315 0.0 0.0 0.00 0.00 0.00 75 1004.7
20260502111510 31 315 0.0 0.0 0.00 0.00 0.00 74 1005.0
20260502111011 31 315 0.0 0.0 0.00 0.00 0.00 74 1004.9
20260502110852 31 315 0.0 0.0 0.00 0.00 0.00 74 1005.0
20260502110510 31 315 0.0 0.0 0.00 0.00 0.00 74 1005.0
20260502110011 31 315 0.0 0.0 0.00 0.00 0.00 73 1004.9
20260502105511 31 315 0.0 0.0 0.00 0.00 0.00 73 1004.7
20260502105353 31 315 0.0 0.0 0.00 0.00 0.00 73 1004.7
20260502105010 31 315 0.0 0.0 0.00 0.00 0.00 73 1004.9
20260502104511 31 315 0.0 0.0 0.00 0.00 0.00 73 1004.7
20260502104012 32 315 0.0 0.0 0.00 0.00 0.00 73 1004.7
20260502103854 32 315 0.0 0.0 0.00 0.00 0.00 73 1004.7
20260502103010 32 315 0.0 0.0 0.00 0.00 0.00 72 1004.4
20260502102511 32 315 0.0 0.0 0.00 0.00 0.00 72 1004.4
20260502102352 32 315 0.0 0.0 0.00 0.00 0.00 72 1004.4
20260502102010 32 315 0.0 0.0 0.00 0.00 0.00 72 1004.4
20260502101510 33 315 0.0 0.0 0.00 0.00 0.00 72 1004.4
20260502101011 33 315 0.0 0.0 0.00 0.00 0.00 72 1004.4
20260502100852 33 315 0.0 0.0 0.00 0.00 0.00 72 1004.4
20260502100510 33 315 0.0 0.0 0.00 0.00 0.00 72 1004.4
20260502091511 34 315 0.0 0.0 0.00 0.00 0.00 70 1004.4
20260502091011 34 315 0.0 0.0 0.00 0.00 0.00 70 1004.4
20260502090852 34 315 0.0 0.0 0.00 0.00 0.00 70 1004.4
20260502090511 34 315 0.0 0.0 0.00 0.00 0.00 70 1004.2
20260502071510 37 315 0.0 0.0 0.00 0.00 0.00 66 1003.7
20260502071011 37 315 0.0 0.0 0.00 0.00 0.00 66 1003.7
20260502070851 37 315 0.0 0.0 0.00 0.00 0.00 65 1003.7
20260502070010 37 315 0.0 0.0 0.00 0.00 0.00 65 1003.7
20260502065510 38 315 0.0 0.0 0.00 0.00 0.00 65 1003.7
20260502065351 38 315 0.0 0.0 0.00 0.00 0.00 65 1004.0
20260502065009 38 315 0.0 0.0 0.00 0.00 0.00 65 1003.7
20260502064510 38 315 0.0 0.0 0.00 0.00 0.00 65 1004.0
20260502064010 38 315 0.0 0.0 0.00 0.00 0.00 65 1004.0
20260502063851 38 315 0.0 0.0 0.00 0.00 0.00 64 1003.8
20260502063509 38 315 0.0 0.0 0.00 0.00 0.00 64 1004.0
20260502063009 38 315 0.0 0.0 0.00 0.00 0.00 64 1003.9
20260502062352 38 315 0.0 0.0 0.00 0.00 0.00 63 1004.0
20260502062009 38 315 0.0 0.0 0.00 0.00 0.00 63 1004.0
20260502061511 39 315 0.0 0.0 0.00 0.00 0.00 63 1004.0
20260502061010 39 315 0.0 0.0 0.00 0.00 0.00 63 1004.0
20260502060851 39 315 0.0 0.0 0.00 0.00 0.00 63 1004.0
20260502060509 39 315 0.0 0.0 0.00 0.00 0.00 63 1004.0
20260502060009 39 315 0.0 0.0 0.00 0.00 0.00 63 1004.0
20260502055509 39 315 0.0 0.0 0.00 0.00 0.00 63 1004.0
20260502055352 39 315 0.0 0.0 0.00 0.00 0.00 62 1004.0
20260502055009 39 315 0.0 0.0 0.00 0.00 0.00 62 1004.0
20260502054509 39 315 0.0 0.0 0.00 0.00 0.00 62 1004.0
20260502054010 39 315 0.0 0.0 0.00 0.00 0.00 61 1004.0
20260502053851 39 315 0.0 0.0 0.00 0.00 0.00 61 1004.0
20260502053510 39 315 0.0 0.0 0.00 0.00 0.00 61 1004.0
20260502053010 39 315 0.0 0.0 0.00 0.00 0.00 61 1003.9
20260502052509 39 338 0.0 0.0 0.00 0.00 0.00 61 1003.7
20260502052351 39 315 0.0 0.0 0.00 0.00 0.00 61 1003.9
20260502052008 39 315 0.0 0.0 0.00 0.00 0.00 61 1003.7
20260502050850 40 338 0.0 0.0 0.00 0.00 0.00 60 1003.7
20260502050511 40 338 0.0 0.0 0.00 0.00 0.00 60 1003.8
20260502050008 40 338 0.0 0.0 0.00 0.00 0.00 60 1003.7
20260502045510 40 338 0.0 0.0 0.00 0.00 0.00 60 1003.7
20260502045351 40 338 0.0 0.0 0.00 0.00 0.00 60 1003.7
20260502045009 40 338 0.0 0.0 0.00 0.00 0.00 60 1003.7
20260502044508 40 315 0.0 0.0 0.00 0.00 0.00 60 1003.7
20260502043851 40 315 0.0 0.0 0.00 0.00 0.00 60 1003.7
20260502042509 40 315 0.0 0.0 0.00 0.00 0.00 60 1003.7
20260502042350 40 315 0.0 0.0 0.00 0.00 0.00 60 1003.7
20260502042009 40 315 0.0 0.0 0.00 0.00 0.00 60 1003.7
20260502041509 40 315 0.0 0.0 0.00 0.00 0.00 60 1003.7
20260502041009 40 338 0.0 0.0 0.00 0.00 0.00 60 1003.7
20260502040851 40 338 0.0 0.0 0.00 0.00 0.00 60 1003.7
20260502040508 40 315 0.0 0.0 0.00 0.00 0.00 60 1003.7
20260502040009 40 338 0.0 0.0 0.00 0.00 0.00 59 1003.7
20260502035508 40 338 0.0 0.0 0.00 0.00 0.00 59 1003.7
20260502035351 40 338 0.0 0.0 0.00 0.00 0.00 59 1003.7
20260502035009 40 338 0.0 0.0 0.00 0.00 0.00 59 1003.7
20260502034508 40 338 0.0 0.0 0.00 0.00 0.00 59 1003.4
20260502034009 41 338 0.0 0.0 0.00 0.00 0.00 58 1003.7
20260502033850 41 338 0.0 0.0 0.00 0.00 0.00 58 1003.7
20260502033509 41 338 0.0 0.0 0.00 0.00 0.00 58 1003.6
20260502033008 41 315 0.0 0.0 0.00 0.00 0.00 58 1003.3
20260502032508 41 338 0.0 0.0 0.00 0.00 0.00 58 1003.3
20260502032351 41 338 0.0 0.0 0.00 0.00 0.00 58 1003.3
20260502032008 41 315 0.0 0.0 0.00 0.00 0.00 58 1003.3
20260502031509 41 315 0.0 0.0 0.00 0.00 0.00 58 1003.5
20260502031009 41 315 0.0 0.0 0.00 0.00 0.00 57 1003.4
20260502030850 41 338 0.0 0.0 0.00 0.00 0.00 57 1003.6
20260502030508 41 338 0.0 0.0 0.00 0.00 0.00 57 1003.4
20260502030009 41 338 0.0 0.0 0.00 0.00 0.00 57 1003.3
20260502025509 41 338 0.0 0.0 0.00 0.00 0.00 57 1003.3
20260502025350 41 338 0.0 0.0 0.00 0.00 0.00 57 1003.3
20260502025009 41 315 0.0 0.0 0.00 0.00 0.00 57 1003.3